Regional Weather Roundup
Issued by NWS

Home | Current Version | Previous Version | Text Only | Print | Product List | Glossary On
Versions: 1 2 3 4 5 6 7 8 9 10 11 12 13 14 15 16 17 18 19 20 21 22 23 24 25 26 27 28 29 30 31 32 33 34 35 36 37 38 39 40 41 42 43 44 45 46 47 48 49 50
000
ASUS43 KDMX 280707
RWRIA

WEATHER ROUNDUP FOR IOWA
NATIONAL WEATHER SERVICE DES MOINES IA
200 AM CDT TUE JUL 28 2015

NOTE: "FAIR" INDICATES FEW OR NO CLOUDS BELOW 12,000 FEET WITH NO
SIGNIFICANT WEATHER AND/OR OBSTRUCTIONS TO VISIBILITY.

* - THESE STATIONS ARE NOT NWS STATIONS...THUS NOT UNDER NWS
QUALITY CONTROL.  THEY ALSO DO NOT REPORT WEATHER SUCH
AS PRECIPITATION OR FOG.

IAZ001>003-012>014-020>022-031>034-043>046-280800-
   NORTHWEST IOWA

CITY           SKY/WX    TMP DP  RH WIND       PRES   REMARKS
CARROLL *      MOCLDY    72  70  94 SE9G15    29.86F
CHEROKEE *     CLOUDY    73  70  88 S8        29.83F
DENISON *      CLEAR     73  70  88 S13G21    29.82S
LE MARS *      PTCLDY    75  72  88 S8        29.80F
ORANGE CITY *  CLEAR     72  66  83 SE9       29.80F
SHELDON *      CLOUDY    73  68  83 SE15G23   29.79F
SIOUX CITY     MOCLDY    76  70  82 SE13      29.78F
SPENCER        MOCLDY    73  66  78 SE15      29.84F
STORM LAKE *   MOCLDY    72  70  94 SE9G17    29.86F
$$

IAZ055>058-069>071-079>083-090>094-280800-
   SOUTHWEST IOWA

CITY           SKY/WX    TMP DP  RH WIND       PRES   REMARKS
ATLANTIC *     MOCLDY    75  70  83 S7G16     29.87S
AUDUBON *      CLEAR     73  70  88 S7        29.88S
CLARINDA *     CLEAR     75  70  83 S7        29.89S
COUNCIL BLFS * CLEAR     75  72  88 SE15      29.84F
CRESTON *      CLEAR     72  68  88 S10       29.90F
HARLAN  *      CLEAR     73  73 100 S9G15     29.89S
LAMONI         CLEAR     73  69  87 SE8       29.91F
RED OAK *      PTCLDY    75  72  88 S10       29.86F
SHENANDOAH *     N/A     75  72  88 SE13      29.85F
$$

IAZ047>049-059>061-072>074-084-280800-
   CENTRAL IOWA

CITY           SKY/WX    TMP DP  RH WIND       PRES   REMARKS
AMES           CLEAR     71  69  93 SE6       29.89F
ANKENY *       CLEAR     72  72 100 SE6       29.89F
CHARITON *     PTCLDY    73  72  94 SE8       29.91F
DES MOINES     PTCLDY    74  69  85 SE7       29.88F
GRINNELL*      CLOUDY    72  70  94 E5        29.93F FOG
KNOXVILLE *    CLEAR     73  72  94 SE6       29.90S
MARSHALLTOWN   MOCLDY    73  72  96 SE9       29.91F
PELLA *        MOCLDY    72  72 100 SE6       29.92F FOG
PERRY *          N/A     72  70  94 SE7       29.88F
$$

IAZ004>006-015-016-023>025-035-036-280800-
   NORTH CENTRAL IOWA

CITY           SKY/WX    TMP DP  RH WIND       PRES   REMARKS
ALGONA *       CLOUDY    72  68  88 SE13G18   29.88F
CLARION *      CLOUDY    70  68  94 SE12G18   29.89F
ESTHERVILLE    PTCLDY    69  67  93 SE10      29.85F
FORT DODGE *   PTCLDY    70  66  88 SE8       29.89F
MASON CITY     CLEAR     71  71 100 SE10      29.92F
FOREST CITY *  PTCLDY    70  70 100 SE9       29.90F
IOWA FALLS *   CLOUDY    70  70 100 SE8       29.92F FOG
$$

IAZ007>011-017>019-026>030-037>042-050>054-066-280800-
   NORTHEAST IOWA

CITY           SKY/WX    TMP DP  RH WIND       PRES   REMARKS
CEDAR RAPIDS   MOCLDY    72  72 100 SE5       29.94F
CHARLES CITY * PTCLDY    72  72 100 SE8       29.93F FOG
CLINTON *      CLEAR     72  66  83 E9        29.99S
DECORAH *      CLEAR     70  70 100 SE6       29.95F FOG
DUBUQUE        CLEAR     72  69  90 SE9       29.98F
MONTICELLO *   CLEAR     70  70 100 SE5       29.95F FOG
OELWEIN *      CLEAR     72  72 100 SE7       29.96F
WATERLOO       CLEAR     72  71  97 SE7       29.92F
$$

IAZ064-065-067-068-078-280800-
   EAST CENTRAL IOWA

CITY           SKY/WX    TMP DP  RH WIND       PRES   REMARKS
DAVENPORT      CLEAR     73  70  90 E7        29.96F
IOWA CITY      CLEAR     72  70  93 SE5       29.95F
MT. PLEASANT * CLOUDY    73  70  88 E3        29.95S FOG
MUSCATINE *    CLEAR     72  70  94 CALM      29.96R FOG
QUAD CITIES    CLEAR     72  69  90 SE6       29.95S
$$

IAZ062-063-075>077-085>089-095>099-280800-
   SOUTHEAST IOWA

CITY           SKY/WX    TMP DP  RH WIND       PRES   REMARKS
BURLINGTON     CLEAR     74  73  97 CALM      29.95R
FAIRFIELD *    CLOUDY    73  72  94 SE6       29.94S FOG
FORT MADISON * CLEAR     72  72 100 CALM      29.96S FOG
KEOKUK *       FOG       73  73 100 CALM      29.94S VSB 0
OSKALOOSA *    CLOUDY    73  72  94 SE6       29.93S FOG
CENTERVILLE *  CLEAR     73  72  94 S5        29.95R
OTTUMWA        CLOUDY    73  73 100 SE7       29.91S FOG
WASHINGTON *   CLOUDY    72  72 100 E6        29.96S FOG
$$

ABBREVIATIONS USED IN REMARKS
   TC - TEMPERATURES IN CELSIUS
  WCI - WIND CHILL INDEX
   HX - HEAT INDEX
  VSB - VISIBILITY
$$



USA.gov is the U.S. government's official web portal to all federal, state and local government web resources and services.